Regional Weather Roundup
Issued by NWS

Home | Current Version | Previous Version | Graphics & Text | Print | Product List | Glossary On
Versions: 1 2 3 4 5 6 7 8 9 10 11 12 13 14 15 16 17 18 19 20 21 22 23 24 25 26 27 28 29 30 31 32 33 34 35 36 37 38 39 40 41 42 43 44 45 46 47 48 49 50
000
ASUS43 KBIS 302320
RWRND

NORTH DAKOTA REGIONAL WEATHER ROUNDUP
NATIONAL WEATHER SERVICE BISMARCK ND
600 PM CDT SAT AUG 30 2014

NOTE: "FAIR" INDICATES FEW OR NO CLOUDS BELOW 12,000 FEET WITH NO
SIGNIFICANT WEATHER AND/OR OBSTRUCTIONS TO VISIBILITY.


NDZ001>003-009>011-017-310000-
NORTHWEST NORTH DAKOTA

CITY           SKY/WX    TMP DP  RH WIND       PRES   REMARKS
WILLISTON      LGT RAIN  70  63  78 NW5       29.67F
MINOT          MOSUNNY   71  50  47 SE16      29.72F
MINOT AFB      MOSUNNY   72  54  53 SE14      29.72F
$$

NDZ018>021-031>035-040>046-310000-
SOUTHWEST NORTH DAKOTA

CITY           SKY/WX    TMP DP  RH WIND       PRES   REMARKS
BISMARCK       SUNNY     75  56  51 SE15      29.75F
DICKINSON      PTSUNNY   75  58  55 S16       29.71S
GARRISON         N/A     72  57  59 SE10      29.73F
HETTINGER ARPT MOSUNNY   77  58  51 E14       29.72F
$$

NDZ004>008-012>016-024-026-027-054-310000-
NORTHEAST NORTH DAKOTA

CITY           SKY/WX    TMP DP  RH WIND       PRES   REMARKS
GRAND FORKS    MOSUNNY   73  51  46 SE7       29.81F
GRND FRKS AFB  SUNNY     71  52  50 SE6       29.82F
DEVILS LAKE    SUNNY     72  52  49 S12G17    29.78F
$$

NDZ022-023-025-028>030-036>039-047>053-310000-
SOUTHEAST NORTH DAKOTA

CITY           SKY/WX    TMP DP  RH WIND       PRES   REMARKS
FARGO          CLOUDY    69  58  67 SE6       29.82F
JAMESTOWN      MOSUNNY   71  56  58 SE9       29.80F
$$



USA.gov is the U.S. government's official web portal to all federal, state and local government web resources and services.